Stations météo

réclame
Mon MeteoGroup
Antwerpen, Belgique (6450): Température de l'air & dewpoint: 11.02.2019 15:00:00 - 17.02.2019 15:00:00 (CET)Antwerpen, Belgique (6450): Vitesse du vent & gusts: 11.02.2019 15:00:00 - 17.02.2019 15:00:00 (CET)Antwerpen, Belgique (6450): Direction du vent: 11.02.2019 15:00:00 - 17.02.2019 15:00:00 (CET)Antwerpen, Belgique (6450): reduced air pressure: 11.02.2019 15:00:00 - 17.02.2019 15:00:00 (CET)Antwerpen, Belgique (6450): visibility: 11.02.2019 15:00:00 - 17.02.2019 15:00:00 (CET)
Date & Time tt [°C] td [°C] ff [km/h] ff [knt] fx [km/h] fx [knt] dd ppp [hPa] vv [km]
17.02.2019 15:00:00 17,0 0,0 16 9 - - S - 10
17.02.2019 14:00:00 15,2 1,8 11 6 22 12 SSE 1019,3 10
17.02.2019 13:00:00 14,1 2,0 13 7 - - SSE 1020,0 10
17.02.2019 12:00:00 11,9 3,1 11 6 22 12 SSE 1020,5 10
17.02.2019 11:00:00 9,3 2,0 13 7 18 10 S 1020,8 10
17.02.2019 10:00:00 3,6 1,6 8 4 - - SE 1021,1 10
17.02.2019 09:00:00 1,7 -0,1 5 3 7 4 ESE 1021,2 10
17.02.2019 08:00:00 0,9 -0,5 5 3 7 4 SE 1021,4 10
17.02.2019 07:00:00 0,9 -0,6 4 2 - - E 1021,6 10
17.02.2019 06:00:00 -0,5 -1,3 5 3 7 4 ESE 1022,1 8
17.02.2019 05:00:00 -0,3 -1,4 5 3 7 4 SE 1022,4 7
17.02.2019 04:00:00 -0,2 -1,5 5 3 - - SE 1022,9 6
17.02.2019 03:00:00 0,8 -0,6 4 2 7 4 E 1023,6 6
17.02.2019 02:00:00 2,7 0,5 4 2 7 4 SE 1024,0 6
17.02.2019 01:00:00 0,6 -0,7 8 4 - - SSE 1024,2 5
17.02.2019 00:00:00 0,9 -0,4 5 3 7 4 ESE 1024,6 6
16.02.2019 23:00:00 2,0 0,6 4 2 7 4 ESE 1024,9 10
16.02.2019 22:00:00 2,8 0,8 4 2 - - SSE 1024,9 10
16.02.2019 21:00:00 4,8 1,5 2 1 4 2 S 1024,8 10
16.02.2019 20:00:00 5,2 1,7 4 2 7 4 SSE 1025,0 10
16.02.2019 19:00:00 7,2 2,6 4 2 - - SSE 1025,1 10
16.02.2019 18:00:00 12,9 3,0 5 3 14 8 S 1024,9 10
16.02.2019 17:00:00 14,3 3,3 11 6 22 12 SSW 1025,2 10
16.02.2019 16:00:00 14,4 3,3 13 7 - - SW 1025,4 10
16.02.2019 15:00:00 14,7 4,2 15 8 22 12 SSW 1025,5 10
16.02.2019 14:00:00 14,3 4,2 15 8 22 12 SSW 1025,8 10
16.02.2019 13:00:00 12,2 3,2 13 7 - - SW 1026,2 10
16.02.2019 12:00:00 10,8 2,2 13 7 22 12 WSW 1026,6 10
16.02.2019 11:00:00 9,6 2,0 13 7 18 10 SW 1026,5 10
16.02.2019 10:00:00 7,5 1,3 9 5 - - SSW 1026,5 10
16.02.2019 09:00:00 0,4 -1,2 5 3 7 4 S 1026,1 10
16.02.2019 08:00:00 -0,2 -2,2 5 3 11 6 SSW 1025,7 10
16.02.2019 07:00:00 0,2 -1,7 4 2 - - SSE 1025,6 10
16.02.2019 06:00:00 -1,1 -2,5 9 5 11 6 S 1025,5 10
16.02.2019 05:00:00 0,2 -1,9 9 5 11 6 S 1025,4 10
16.02.2019 04:00:00 6,0 0,5 5 3 - - S 1025,5 10
16.02.2019 03:00:00 6,0 0,2 9 5 11 6 SSW 1026,0 5
16.02.2019 02:00:00 1,2 -1,0 5 3 11 6 SSW 1026,4 10
16.02.2019 01:00:00 2,0 -0,9 5 3 - - SSE 1026,5 10
16.02.2019 00:00:00 4,1 -0,4 4 2 14 8 S 1026,5 10
15.02.2019 23:00:00 3,4 -0,3 11 6 14 8 S 1026,4 10
15.02.2019 22:00:00 2,7 0,6 8 4 - - S 1026,6 10
15.02.2019 21:00:00 5,4 1,5 4 2 7 4 SSE 1026,9 10
15.02.2019 20:00:00 5,5 1,8 5 3 7 4 SE 1027,3 10
15.02.2019 19:00:00 7,5 2,0 4 2 - - ESE 1027,6 10
15.02.2019 18:00:00 12,0 2,4 8 4 11 6 ESE 1027,5 10
15.02.2019 17:00:00 13,7 4,2 9 5 14 8 ESE 1027,8 10
15.02.2019 16:00:00 15,8 3,9 9 5 - - SE 1028,3 10
15.02.2019 15:00:00 16,3 0,3 11 6 14 8 SE 1029,0 10
15.02.2019 14:00:00 15,9 0,3 9 5 18 10 SE 1029,8 10
15.02.2019 13:00:00 13,9 2,5 8 4 - - SE 1030,6 10
15.02.2019 12:00:00 10,9 2,0 8 4 11 6 SE 1031,2 10
15.02.2019 11:00:00 8,2 1,1 8 4 11 6 SE 1031,4 10
15.02.2019 10:00:00 4,5 -0,1 5 3 - - ESE 1031,6 10
15.02.2019 09:00:00 1,2 -2,7 5 3 7 4 ESE 1031,9 10
15.02.2019 08:00:00 -1,0 -2,8 5 3 7 4 ESE 1031,6 10
15.02.2019 07:00:00 -0,8 -2,2 2 1 - - ESE 1031,7 10
15.02.2019 06:00:00 - - 2 1 7 4 E - 10
15.02.2019 05:00:00 - - 4 2 7 4 ESE - 10
15.02.2019 04:00:00 - - 5 3 - - E - 10
15.02.2019 03:00:00 - - 2 1 7 4 E - 10
15.02.2019 02:00:00 - - 4 2 7 4 E - 10
15.02.2019 01:00:00 - - 2 1 - - SE - 10
15.02.2019 00:00:00 - - 5 3 7 4 ESE - 10
14.02.2019 23:00:00 1,9 -0,8 5 3 7 4 SE 1033,0 10
14.02.2019 22:00:00 2,6 -0,3 2 1 - - ENE 1033,0 10
14.02.2019 21:00:00 3,8 0,0 2 1 4 2 ESE 1033,1 10
14.02.2019 20:00:00 4,9 0,1 2 1 4 2 - 1033,3 10
14.02.2019 19:00:00 8,1 -0,2 4 2 - - - 1033,4 10
14.02.2019 18:00:00 10,9 0,6 5 3 11 6 SE 1033,1 10
14.02.2019 17:00:00 12,9 1,0 8 4 18 10 ESE 1033,5 10
14.02.2019 16:00:00 13,6 2,2 11 6 - - ESE 1034,0 10
14.02.2019 15:00:00 12,2 1,3 11 6 14 8 SE 1034,4 10
14.02.2019 14:00:00 11,3 1,5 5 3 14 8 E 1035,2 10
14.02.2019 13:00:00 10,2 1,9 5 3 - - ESE 1035,6 10
14.02.2019 12:00:00 8,1 2,0 5 3 11 6 ESE 1036,2 10
14.02.2019 11:00:00 5,7 1,3 5 3 11 6 SSE 1036,0 10
14.02.2019 10:00:00 2,4 0,5 8 4 - - SE 1036,3 10
14.02.2019 09:00:00 -0,3 -1,4 5 3 7 4 SSE 1036,4 8
14.02.2019 08:00:00 -1,1 -2,1 4 2 4 2 E 1035,9 9
14.02.2019 07:00:00 -1,9 -2,5 4 2 - - SSE 1035,3 9
14.02.2019 06:00:00 -1,9 -2,7 4 2 7 4 - 1035,1 3,2
14.02.2019 05:00:00 -1,0 -1,5 2 1 11 6 ESE 1035,2 5
14.02.2019 04:00:00 -0,8 -1,3 4 2 - - - 1035,2 4,8
14.02.2019 03:00:00 -0,7 -1,5 4 2 4 2 E 1035,4 4,3
14.02.2019 02:00:00 -0,6 -1,2 0 0 4 2 N 1035,5 2,3
14.02.2019 01:00:00 1,1 0,2 4 2 - - ESE 1035,5 3,7
14.02.2019 00:00:00 0,1 -0,6 5 3 7 4 SE 1035,4 6
13.02.2019 23:00:00 2,4 0,5 5 3 11 6 SSE 1035,6 10
13.02.2019 22:00:00 4,8 1,2 8 4 - - SSW 1035,7 10
13.02.2019 21:00:00 5,0 1,1 5 3 11 6 S 1035,7 10
13.02.2019 20:00:00 5,8 1,3 9 5 11 6 SSW 1035,9 10
13.02.2019 19:00:00 6,7 2,0 8 4 - - SW 1035,9 10
13.02.2019 18:00:00 7,3 1,7 9 5 22 12 SSW 1035,6 10
13.02.2019 17:00:00 8,0 1,5 13 7 22 12 SSW 1035,7 10
13.02.2019 16:00:00 8,8 1,5 14 8 - - SW 1035,7 15
13.02.2019 15:00:00 8,2 1,4 13 7 22 12 SSW 1035,6 10
13.02.2019 14:00:00 7,9 0,7 13 7 22 12 WSW 1036,2 10
13.02.2019 13:00:00 7,3 0,9 16 9 - - SW 1036,9 10
13.02.2019 12:00:00 6,4 0,8 15 8 25 14 SW 1037,0 10
13.02.2019 11:00:00 5,7 0,9 15 8 25 14 SW 1036,7 10
13.02.2019 10:00:00 4,1 0,4 16 9 - - SW 1036,6 10
13.02.2019 09:00:00 3,5 0,6 11 6 18 10 SSW 1036,5 10
13.02.2019 08:00:00 3,5 0,7 11 6 18 10 SW 1036,2 10
13.02.2019 07:00:00 3,4 0,6 13 7 - - SW 1035,9 10
13.02.2019 06:00:00 3,4 0,7 13 7 25 14 SSW 1035,9 9
13.02.2019 05:00:00 3,6 0,9 15 8 25 14 SW 1035,9 9
13.02.2019 04:00:00 3,8 1,1 16 9 - - SSW 1035,9 10
13.02.2019 03:00:00 3,9 1,6 15 8 22 12 SSW 1036,1 9
13.02.2019 02:00:00 4,0 1,6 15 8 22 12 SW 1036,4 9
13.02.2019 01:00:00 3,9 1,8 15 8 - - SW 1036,2 9
13.02.2019 00:00:00 4,3 2,1 16 9 22 12 SW 1036,1 9
12.02.2019 23:00:00 4,8 2,5 15 8 22 12 SW 1035,8 10
12.02.2019 22:00:00 5,6 2,4 13 7 - - SSW 1035,6 10
12.02.2019 21:00:00 6,3 2,7 13 7 22 12 SW 1035,6 10
12.02.2019 20:00:00 6,4 2,8 13 7 18 10 SSW 1035,2 10
12.02.2019 19:00:00 6,6 3,0 11 6 - - SSW 1035,1 10
12.02.2019 18:00:00 7,6 3,2 9 5 22 12 SSW 1035,0 10
12.02.2019 17:00:00 8,1 2,9 15 8 25 14 SW 1034,8 10
12.02.2019 16:00:00 9,1 3,0 15 8 - - WSW 1034,9 10
12.02.2019 15:00:00 8,1 2,4 15 8 25 14 SW 1034,6 10
12.02.2019 14:00:00 7,7 2,6 13 7 22 12 SW 1034,8 10
12.02.2019 13:00:00 6,5 2,9 11 6 - - SW 1035,2 7
12.02.2019 12:00:00 4,8 2,2 13 7 22 12 SW 1035,5 7
12.02.2019 11:00:00 3,5 1,9 11 6 18 10 SW 1035,1 6
12.02.2019 10:00:00 2,6 1,4 13 7 - - SSW 1034,8 6
12.02.2019 09:00:00 2,3 1,3 11 6 18 10 SW 1034,7 5
12.02.2019 08:00:00 1,4 0,8 5 3 11 6 SW 1033,9 1,0
12.02.2019 07:00:00 1,2 0,8 8 4 - - SW 1033,6 0,6
12.02.2019 06:00:00 1,5 0,9 8 4 11 6 SW 1033,6 4,8
12.02.2019 05:00:00 1,5 0,8 9 5 11 6 SW 1033,6 2,7
12.02.2019 04:00:00 -1,3 -1,7 7 4 - - SW 1033,7 3,3
12.02.2019 03:00:00 1,5 0,6 4 2 11 6 WSW 1033,7 4,5
12.02.2019 02:00:00 2,2 1,1 8 4 7 4 W 1033,5 9
12.02.2019 01:00:00 2,8 1,5 5 3 - - WSW 1033,1 10
12.02.2019 00:00:00 3,4 1,5 9 5 11 6 W 1032,5 10
11.02.2019 23:00:00 3,6 1,7 5 3 7 4 WSW 1031,7 10
11.02.2019 22:00:00 3,9 1,7 8 4 - - W 1031,3 10
11.02.2019 21:00:00 4,9 1,6 9 5 14 8 W 1030,8 10
11.02.2019 20:00:00 5,3 1,7 9 5 18 10 WNW 1030,1 10
11.02.2019 19:00:00 5,6 2,3 11 6 - - NNW 1028,8 10
11.02.2019 18:00:00 6,5 2,0 15 8 36 19 NNW 1028,0 10
11.02.2019 17:00:00 7,2 2,3 22 12 32 18 NNW 1026,7 10
11.02.2019 16:00:00 7,0 3,5 15 8 - - NW 1025,3 10
11.02.2019 15:00:00 7,6 3,0 21 11 32 18 NNW 1024,0 10

tt = Température de l'air
td = dewpoint
ff = Vitesse du vent
fx = gusts
dd = Direction du vent
ppp = reduced air pressure
vv = visibility

stations d'obs. à proximité